Weather Roundup
Issued by NWS

Home | Current Version | Previous Version | Graphics & Text | Print | Product List | Glossary Off
Versions: 1 2 3 4 5 6 7 8 9 10 11 12 13 14 15 16 17 18 19 20 21 22 23 24 25 26 27 28 29 30 31 32 33 34 35 36 37 38 39 40 41 42 43 44 45 46 47 48 49 50

000
NZUS93 KARX 152259
HRRWXR

CURRENT HOURLY OBSERVATIONS ACROSS
MUCH OF THE UPPER MISSISSIPPI VALLEY
NATIONAL WEATHER SERVICE LA CROSSE WI
500 PM CST FRI DEC 15 2017


...SOUTHEAST MINNESOTA...


CITY           SKY/WX    TMP DP  RH WIND       PRES   REMARKS
ROCHESTER      CLOUDY    28  27  96 S3        29.77F
ROCHESTER/MAYO CLOUDY    32  29  88 CALM      29.79S
WINONA         CLOUDY    32  28  86 CALM      29.81F
AUSTIN         CLOUDY    30  27  86 E3        29.76F
ALBERT LEA     MOCLDY    34  27  75 CALM      29.76S
DODGE CENTER   CLOUDY    28  27  93 CALM      29.77S
PRESTON        MOCLDY    30  27  88 CALM      29.78F
OWATONNA       PTCLDY    32  28  86 CALM      29.76S
FARIBAULT      CLOUDY    30  27  86 CALM      29.77S
$$

...ELSEWHERE IN MINNESOTA...


CITY           SKY/WX    TMP DP  RH WIND       PRES   REMARKS
MINNEAPOLIS    CLOUDY    28  22  78 SE7       29.78F WCI  21
INTNL FALLS    CLOUDY     7   1  76 NE6       29.75F WCI  -3
DULUTH         CLOUDY    11   4  73 NE3       29.73S
RED WING       CLOUDY    28  21  74 CALM      29.79S
REDWOOD FALLS  CLOUDY    37  30  75 S5        29.71F WCI  33
MANKATO        CLOUDY    31  29  92 E7        29.75F WCI  24
WORTHINGTON    CLOUDY    38  25  59 SW10      29.72F WCI  31
FAIRMONT       CLOUDY    37  26  64 SW6       29.75F WCI  32
$$

...SOUTHWEST WISCONSIN...


CITY           SKY/WX    TMP DP  RH WIND       PRES   REMARKS
LA CROSSE      CLOUDY    32  27  81 S5        29.82S WCI  27
PRAIRIE DU CHI CLOUDY    34  27  75 CALM      29.83F
BOSCOBEL       CLOUDY    32  27  81 CALM      29.85S
LONE ROCK      NOT AVBL
PLATTEVILLE    CLOUDY    32  29  88 S6        29.85S WCI  26
FORT MC COY    CLOUDY    30  25  82 SW5       29.82S WCI  25
CAMP DOUGLAS   CLOUDY    28  23  80 W6        29.80S WCI  22
MAUSTON-NEW LI CLOUDY    31  24  76 SW5       29.80S WCI  26
VIROQUA        CLOUDY    29  28  96 CALM      29.80R
WIS DELLS      CLOUDY    29  23  79 SW6       29.81S WCI  23
$$

...ELSEWHERE IN WISCONSIN...


CITY           SKY/WX    TMP DP  RH WIND       PRES   REMARKS
MILWAUKEE      MOCLDY    31  22  69 SW8       29.84F WCI  23
MADISON        FLURRIES  30  24  78 W8        29.84R WCI  22
GREEN BAY      PTCLDY    16   6  65 W3        29.83S
EAU CLAIRE     CLOUDY    22  15  75 CALM      29.80S
BLACK RVR FLS  CLOUDY    26  17  68 N3        29.81R
MEDFORD        CLOUDY    14   7  72 CALM      29.76R
WAUSAU         CLOUDY    12   7  80 CALM      29.77S
WIS RAPIDS     CLOUDY    22  13  68 NW3       29.82R
MARSHFIELD     CLOUDY    15  10  80 NW5       29.77S WCI   8
RICE LAKE      CLOUDY    16  10  76 CALM      29.80F
$$

...NORTHEAST IOWA...


CITY           SKY/WX    TMP DP  RH WIND       PRES   REMARKS
WATERLOO       PTCLDY    36  22  56 SW9       29.81F WCI  29
DUBUQUE        PTCLDY    30  25  81 S8        29.84S WCI  22
DECORAH        CLOUDY    32  28  86 CALM      29.79S
MASON CITY     CLOUDY    39  23  52 SW9       29.78S WCI  33
CHARLES CITY   CLOUDY    34  25  69 SW6       29.79S WCI  29
OELWEIN        CLEAR     32  25  74 SW7       29.82S WCI  26
$$

...ELSEWHERE IN IOWA...


CITY           SKY/WX    TMP DP  RH WIND       PRES   REMARKS
DES MOINES     CLOUDY    43  21  41 SW13      29.85F
IOWA CITY      CLEAR     38  22  52 SW8       29.90S WCI  32
FORT DODGE     CLOUDY    40  24  53 SW10      29.79F WCI  33
MARSHALLTOWN   CLOUDY    39  23  52 SW12      29.82F WCI  32
CEDAR RAPIDS   CLEAR     33  22  63 SW7       29.85S WCI  27
$$

...NORTHERN ILLINOIS...


CITY           SKY/WX    TMP DP  RH WIND       PRES   REMARKS
CHICAGO-OHARE  CLOUDY    33  21  61 SW8       29.89F WCI  26
CHICAGO-MIDWAY FLURRIES  34  21  59 SW13G22   29.91F WCI  25
MOLINE         NOT AVBL
ROCKFORD       FLURRIES  32  25  75 SW9       29.90S WCI  24
PEORIA         CLOUDY    36  21  54 SW9       29.97S WCI  29
$$

NOTE: "FAIR" INDICATES FEW OR NO CLOUDS BELOW 12,000 FEET WITH NO
SIGNIFICANT WEATHER AND/OR OBSTRUCTIONS TO VISIBILITY. WIND
SPEEDS ARE IN MILES-PER-HOUR.




USA.gov is the U.S. government's official web portal to all federal, state and local government web resources and services.